STARLINK-1652 (46367 NORAD) Tracking and Keplerian Element Data

This shows tracking and keplerian element data for the satellite.

Feedback or suggestion? Click here.




ElementValue
Catalog46367
NameSTARLINK-1652
Epoch Orbit185
Epoch Day336.91667824
Epoch Year2020
RAAN12.7726
Inclination53.0004
Eccentricity0.0001473
Argument of Perigee74.1874
Mean Anonmoly302.1175
Mean Motion15.05575533
Decay Rate0.00029484
L11 46367U 20062AU 20336.91667824 .00029484 00000-0 20345-2 0 9996
L22 46367 53.0004 12.7726 0001473 74.1874 302.1175 15.05575533 1853

Live tracking and technical data element details for STARLINK-1652 (NORAD 46367). STARLINK-1652 can be tracked NOW for your location showing map with azimuth and elevation plus other details from your city location.

Track the satellite on the map from your city or location and see movement details for azimuth, elevation, latitude, longitude, range, height, and movement on the map or in text.







IsCatalogInMostPopularTable: catalog: 46367, numindb: 25
Update: records affected: 1



GetName: 46367 STARLINK-1652

Hit Count: updated at: Wed, 02 Dec 2020 19:28:33 GMT